Regional Weather Roundup
Issued by NWS

Home | Current Version | Previous Version | Graphics & Text | Print | Product List | Glossary On
Versions: 1 2 3 4 5 6 7 8 9 10 11 12 13 14 15 16 17 18 19 20 21 22 23 24 25 26 27 28 29 30 31 32 33 34 35 36 37 38 39 40 41 42 43 44 45 46 47 48 49 50
000
ASUS43 KDTX 251101
RWRMI
MICHIGAN HOURLY REGIONAL WEATHER ROUNDUP
NATIONAL WEATHER SERVICE DETROIT/PONTIAC MI
700 AM EDT THU AUG 25 2016

NOTE: "FAIR" INDICATES FEW OR NO CLOUDS BELOW 12,000 FEET WITH NO
SIGNIFICANT WEATHER AND/OR OBSTRUCTION TO VISIBILITY.

MIZ047>049-052>055-059>063-066>070-074>076-081>083-251200-
SOUTHEAST LOWER MICHIGAN

CITY           SKY/WX    TMP DP  RH WIND       PRES   REMARKS
ADRIAN         MOCLDY    68  68 100 SW6       30.02R
ALMA           MOCLDY    72  72  99 W7        29.96S FOG
ANN ARBOR      FOG       69  69 100 S3        30.00R VSB 1/2
BAD AXE        FOG       68  68 100 CALM      29.95S VSB 1/4
CARO           CLOUDY    69  69  98 CALM      29.95S FOG
DETROIT CITY   CLOUDY    73  73 100 SW6       29.99S
DETROIT        CLOUDY    71  71 100 S5        30.00S FOG
FLINT          CLOUDY    74  70  87 S5        29.98R
GROSSE ILE     CLOUDY    70  69  96 CALM      29.98S FOG
HILLSDALE      PTCLDY    71  69  91 CALM      30.02R
HOWELL         CLOUDY    71  71  98 SW5       29.99S FOG

CITY           SKY/WX    TMP DP  RH WIND       PRES   REMARKS
JACKSON        MOCLDY    72  72 100 SW6       30.00S
LAMBERTVILLE   PTCLDY    72  70  93 CALM      30.01S
LANSING        PTCLDY    72  69  90 SW6       29.98S
LAPEER         CLOUDY    72  71  96 W5        29.98S FOG
MASON          PTCLDY    71  69  95 SE5       29.98F FOG
MONROE         CLOUDY    69  69 100 CALM      30.00R FOG
MT. CLEMENS    PTCLDY    72  72 100 SW5       29.96S
PONTIAC        CLOUDY    72  70  93 S3        29.98S FOG
PORT HURON     MOCLDY    70  70 100 CALM      29.97F FOG
TRI CITIES     CLOUDY    71  70  96 SW3       29.96R FOG
MIDLAND        FAIR      70  69  99 CALM      29.94S FOG
TROY           PTCLDY    73  71  93 SW3       30.01R FOG
SAGINAW HB     CLOUDY    70  70 100 SW5       29.96R FOG
$$
MIZ043>046-050>051-056>058-064>065-071>073-077>080-251200-
SOUTHWEST LOWER MICHIGAN

CITY           SKY/WX    TMP DP  RH WIND       PRES   REMARKS
BATTLE CREEK   CLOUDY    70  70 100 SW9       30.01R
BENTON HARBOR  CLOUDY    73  69  87 SW7       29.98R
BIG RAPIDS     CLOUDY    69  68  97 CALM      29.96S FOG
COLDWATER      CLOUDY    71  70  99 CALM      30.01R
FREMONT        CLOUDY    69  69  97 S3        29.96R FOG
HOLLAND        CLOUDY    74  72  93 SW10      29.98R
GRAND RAPIDS   TSTM      73  71  93 W10       29.98R FOG
IONIA          CLOUDY    72  71  96 SW3       29.96R FOG
KALAMAZOO      LGT RAIN  74  69  85 W7        29.99R
LUDINGTON      CLOUDY    66  66 100 CALM      29.94S FOG
MARSHALL       MOCLDY    72  72 100 SW3       29.99R
MOUNT PLEASANT CLOUDY    71  70  98 CALM      29.94F FOG
MUSKEGON       RAIN      71  70  96 SW5       29.97R FOG
SOUTH HAVEN    CLOUDY    74  73  96 SW3       29.97S
$$
MIZ016>042-251200-
NORTHERN LOWER MICHIGAN

CITY           SKY/WX    TMP DP  RH WIND       PRES   REMARKS
ALPENA         PTCLDY    67  65  93 CALM      29.92R
BEAVER ISLAND  MOCLDY    67  66  97 SW5       29.92R
BELLAIRE       CLOUDY    69  67  95 CALM      29.93R
CADILLAC       CLOUDY    67  66  96 CALM      29.96F FOG
CHARLEVOIX     CLOUDY    70  69  95 SW7       29.95R
FRANKFORT      CLOUDY    65  63  94 CALM      29.93S
GAYLORD        CLOUDY    70  66  87 W5        29.95R
GRAYLING       CLOUDY    69  68  96 W5        29.96R
HARBOR SPRINGS MOCLDY    70  68  93 W3        29.91S
HOUGHTON LAKE  CLOUDY    69  67  93 W6        29.97R
MANISTEE       CLOUDY    64  63  96 CALM      29.94S FOG
OSCODA         PTCLDY    68  67  98 W3        29.92S
PELLSTON       CLOUDY    69  66  90 W5        29.91R
ROGERS CITY    PTCLDY    69  67  93 SW7       29.91R
TRAVERSE CITY  CLOUDY    70  67  90 SW3       29.92R
$$
MIZ007>008-015-251200-
EASTERN UPPER MICHIGAN

CITY           SKY/WX    TMP DP  RH WIND       PRES   REMARKS
KINROSS        FOG       66  66 100 SW3       29.89R VSB 1/4
MACKINAC ISLAN CLOUDY    69  69 100 W9        29.90R
NEWBERRY         N/A     63  62  97 SW7       29.89R
S. S. MARIE    FOG       66  65  96 SW3       29.88R VSB 1/2
$$
MIZ004>006-011>014-085-251200-
CENTRAL UPPER MICHIGAN

CITY           SKY/WX    TMP DP  RH WIND       PRES   REMARKS
MANISTIQUE     PTCLDY    64  61  92 W7        29.90R
ESCANABA       CLOUDY    62  60  93 W7        29.93R
MENOMINEE      CLOUDY   N/A N/A N/A VRB3      29.95R
SAWYER-GWINN   CLEAR     59  57  94 W8        29.93R
$$
MIZ001>003-009>011-084-251200-
WESTERN UPPER MICHIGAN

CITY           SKY/WX    TMP DP  RH WIND       PRES   REMARKS
IRON MOUNTAIN  CLOUDY    61  56  83 W5        29.95R
HOUGHTON       CLEAR     63  58  83 W7        29.90R
COPPER HARBOR    N/A     67  58  72 NW9       29.87R
IRONWOOD       CLEAR     56  53  90 SW3       29.97R
$$

ABBREVIATIONS USED IN REMARKS
   TC - TEMPERATURE IN CELSIUS
  WCI - WIND CHILL INDEX
   HX - HEAT INDEX
  VSB - VISIBILITY





USA.gov is the U.S. government's official web portal to all federal, state and local government web resources and services.